Regional Weather Roundup
Issued by NWS

Home | Current Version | Previous Version | Text Only | Print | Product List | Glossary Off
Versions: 1 2 3 4 5 6 7 8 9 10 11 12 13 14 15 16 17 18 19 20 21 22 23 24 25 26 27 28 29 30 31 32 33 34 35 36 37 38 39 40 41 42 43 44 45 46 47 48 49 50

000
ASUS43 KDTX 280710
RWRMI
MICHIGAN HOURLY REGIONAL WEATHER ROUNDUP
NATIONAL WEATHER SERVICE DETROIT/PONTIAC MI
200 AM EST SUN DEC 28 2014

NOTE: "FAIR" INDICATES FEW OR NO CLOUDS BELOW 12,000 FEET WITH NO
SIGNIFICANT WEATHER AND/OR OBSTRUCTION TO VISIBILITY.

MIZ047>049-052>055-059>063-066>070-074>076-081>083-280800-
SOUTHEAST LOWER MICHIGAN

CITY           SKY/WX    TMP DP  RH WIND       PRES   REMARKS
ADRIAN         CLOUDY    35  30  82 NW7       30.01F
ALMA           CLOUDY    34  32  92 W6        29.99R
ANN ARBOR      CLOUDY    36  30  79 NW15G22   29.98F
BAD AXE        CLOUDY    34  31  88 NW10G16   29.95S
DETROIT CITY   CLOUDY    39  31  72 W10       29.99R
DETROIT        CLOUDY    37  31  78 W14G23    29.99S
FLINT          CLOUDY    37  30  75 W8        29.98R
GROSSE ILE     CLOUDY    37  32  81 W13       29.97F
HILLSDALE      CLOUDY    35  32  89 NW8       30.00S
HOWELL         CLOUDY    34  30  85 W9        29.98R

CITY           SKY/WX    TMP DP  RH WIND       PRES   REMARKS
JACKSON        CLOUDY    35  28  75 W7        29.99S
LAMBERTVILLE   CLOUDY    37  32  81 W7        30.00F
LANSING        CLOUDY    35  30  82 W8        30.00R
LAPEER         NOT AVBL
MASON          CLOUDY    34  29  82 W6        29.99S
MONROE         CLOUDY    37  32  81 W9G17     29.98F
MT. CLEMENS    CLOUDY    38  34  86 W9        29.96R
PONTIAC        CLOUDY    35  29  78 W15       29.96R
PORT HOPE        N/A     36  29  75 NW12G17   29.93R
PORT HURON     CLOUDY    37  32  81 W7        29.97R
TRI CITIES     CLOUDY    36  30  79 NW10      29.98S
YPSILANTI      CLOUDY    39  30  70 NW14      29.99S
$$
MIZ043>046-050>051-056>058-064>065-071>073-077>080-280800-
SOUTHWEST LOWER MICHIGAN

CITY           SKY/WX    TMP DP  RH WIND       PRES   REMARKS
BATTLE CREEK   CLOUDY    35  29  78 W6        30.01S
BENTON HARBOR  CLOUDY    35  28  75 NW8       30.06R
BIG RAPIDS     CLOUDY    33  32  98 W5        29.97S
COLDWATER      CLOUDY    34  29  81 W8        30.02R
HOLLAND        CLOUDY    37  30  75 NW13G21   30.04R
GRAND RAPIDS   CLOUDY    35  32  88 W7        30.01R
KALAMAZOO      CLOUDY    35  29  78 W7        30.03R
MARSHALL       CLOUDY    33  30  88 SW6       30.00S
MUSKEGON       CLOUDY    35  29  78 NW12      30.03R
$$
MIZ016>042-280800-
NORTHERN LOWER MICHIGAN

CITY           SKY/WX    TMP DP  RH WIND       PRES   REMARKS
ALPENA         CLOUDY    31  22  69 NW8       29.94S
BEAVER ISLAND  PTCLDY    30  22  72 W8        29.95S
BELLAIRE       CLOUDY    33  24  69 W3        29.96F
CADILLAC       CLOUDY    31  28  91 W6        29.94S
CHARLEVOIX     CLOUDY    32  23  68 NW15      29.97F
FRANKFORT      CLOUDY    32  27  81 NW15G22   29.99S
GAYLORD        CLOUDY    29  23  78 W6        29.91F
GRAYLING       CLOUDY    31  29  94 W7        29.94S
HARBOR SPRINGS CLOUDY    31  21  66 W9        29.94S
HOUGHTON LAKE  CLOUDY    31  28  89 W7        29.94F
MANISTEE       CLOUDY    34  23  64 NW16      30.01R
OSCODA         CLOUDY    32  25  76 W6        29.94F
PELLSTON       CLOUDY    31  21  66 NW16      29.94S
TRAVERSE CITY  CLOUDY    33  30  88 W8        29.96F
$$
MIZ007>008-015-280800-
EASTERN UPPER MICHIGAN

CITY           SKY/WX    TMP DP  RH WIND       PRES   REMARKS
KINROSS        CLOUDY    28  27  93 W10G21    29.90S
MACKINAC ISLAN CLOUDY    31  24  77 W16       29.93S
NEWBERRY       PTCLDY    24  21  89 W10       29.92S
S. S. MARIE    CLOUDY    30  23  75 W15G22    29.87F
$$
MIZ004>006-011>014-085-280800-
CENTRAL UPPER MICHIGAN

CITY           SKY/WX    TMP DP  RH WIND       PRES   REMARKS
MANISTIQUE     CLEAR     23  20  89 W8        29.96S
ESCANABA       CLEAR     21  18  86 W10       29.97F
MENOMINEE      CLEAR     23  18  80 W5        30.02S
SAWYER-GWINN   CLEAR     16  12  86 W5        29.92F
$$
MIZ001>003-009>011-084-280800-
WESTERN UPPER MICHIGAN

CITY           SKY/WX    TMP DP  RH WIND       PRES   REMARKS
IRON MOUNTAIN    N/A     16  11  80 W7        29.96F
HOUGHTON       FLURRIES  22  16  78 W10       29.89F
COPPER HARBOR    N/A     27  17  66 N13       29.91F
IRONWOOD       PTCLDY    16  10  79 W8        29.94S
$$

ABBREVIATIONS USED IN REMARKS
   TC - TEMPERATURE IN CELSIUS
  WCI - WIND CHILL INDEX
   HX - HEAT INDEX
  VSB - VISIBILITY




USA.gov is the U.S. government's official web portal to all federal, state and local government web resources and services.